Location: Newark
(34.9756°N, 138.3828°E)
Time: 15:42:59
(UTC+00:00)

N. Korean satellite - Pass Details

Date: 12 December 2019
Orbit: 454 x 508 km, 97.2° (Epoch: 17 January)

Event Time Altitude Azimuth Distance (km) Brightness Sun altitude
Rises 08:25:16 0° 188° (S) 2,597 10.7 -10.1°
Reaches altitude 10° 08:27:31 10° 199° (SSW) 1,716 9.9 -10.6°
Maximum altitude 08:30:49 31° 263° (W) 915 8.8 -11.2°
Drops below altitude 10° 08:34:09 10° 326° (NW) 1,718 9.5 -11.8°
Sets 08:36:24 0° 337° (NNW) 2,601 10.3 -12.3°
